Weather History for Newton, KS

Change the Weather History Date:

Tuesday, March 26, 2013

  Actual Average Record
Temperature  
Mean Temperature 30 °F -  
Max Temperature 44 °F 57 °F 77 °F (2012)
Min Temperature 15 °F 36 °F 12 °F (2014)
Degree Days  
Heating Degree Days 36    
Moisture  
Dew Point 17 °F    
Average Humidity 61    
Maximum Humidity 86    
Minimum Humidity 39    
Precipitation  
Precipitation 0.00 in - - ()
Sea Level Pressure  
Sea Level Pressure 30.33 in    
Wind  
Wind Speed 5 mph (SSW)    
Max Wind Speed 15 mph    
Max Gust Speed 18 mph    
Visibility 10 miles    
Events      
Averages and records for this station are not official NWS values.
T = Trace of Precipitation, MM = Missing Value Source: NWS Daily Summary

Daily Weather History Graph

Daily Weather History Graph

Search for Another Location

Airport:

Trip Planner

Search our weather history database for the weather conditions in past years. The results will help you decide how hot, cold, wet, or windy it might be!

Date:

Astronomy

Mar. 26, 2013 Rise Set
Actual Time 7:22 AM CDT 7:46 PM CDT
Civil Twilight 6:56 AM CDT 8:13 PM CDT
Nautical Twilight 6:25 AM CDT 8:44 PM CDT
Astronomical Twilight 5:54 AM CDT 9:16 PM CDT
Moon 7:24 PM CDT (3/26) 6:40 AM CDT (3/26)
Length of Visible Light 13h 16m
Length of Day
12h 23m
Waxing Gibbous, 99% of the Moon is Illuminated
Mar 26
Waxing Gibbous
Mar 27
Full
Apr 2
Last Quarter
Apr 10
New
Apr 18
First Quarter

Hourly Weather History & Observations

Time (CDT) Temp. Windchill Dew Point Humidity Pressure Visibility Wind Dir Wind Speed Gust Speed Precip Events Conditions
12:15 AM 23.0 °F 17.0 °F 15.8 °F 74% 30.38 in 10.0 mi NW 4.6 mph - N/A   Clear
12:35 AM 23.0 °F 17.0 °F 14.0 °F 68% 30.37 in 10.0 mi NW 4.6 mph - N/A   Clear
12:55 AM 23.0 °F 18.4 °F 14.0 °F 68% 30.38 in 10.0 mi NW 3.5 mph - N/A   Clear
1:15 AM 23.0 °F 18.4 °F 14.0 °F 68% 30.38 in 10.0 mi NW 3.5 mph - N/A   Clear
1:35 AM 21.2 °F - 12.2 °F 68% 30.38 in 10.0 mi Calm Calm - N/A   Clear
1:55 AM 21.2 °F 14.9 °F 14.0 °F 74% 30.38 in 10.0 mi NNW 4.6 mph - N/A   Clear
2:15 AM 19.4 °F 14.3 °F 12.2 °F 74% 30.38 in 10.0 mi NW 3.5 mph - N/A   Clear
2:35 AM 19.4 °F 12.8 °F 12.2 °F 74% 30.38 in 10.0 mi NW 4.6 mph - N/A   Clear
2:55 AM 19.4 °F 14.3 °F 12.2 °F 74% 30.38 in 10.0 mi NW 3.5 mph - N/A   Clear
3:15 AM 19.4 °F 14.3 °F 12.2 °F 74% 30.38 in 10.0 mi WNW 3.5 mph - N/A   Clear
3:35 AM 19.4 °F 14.3 °F 12.2 °F 74% 30.38 in 10.0 mi NW 3.5 mph - N/A   Clear
3:55 AM 19.4 °F 14.3 °F 12.2 °F 74% 30.38 in 10.0 mi WNW 3.5 mph - N/A   Clear
4:15 AM 19.4 °F 14.3 °F 12.2 °F 74% 30.37 in 10.0 mi NW 3.5 mph - N/A   Clear
4:35 AM 17.6 °F - 12.2 °F 79% 30.37 in 10.0 mi Calm Calm - N/A   Clear
4:55 AM 19.4 °F 14.3 °F 12.2 °F 74% 30.37 in 10.0 mi NW 3.5 mph - N/A   Clear
5:15 AM 17.6 °F 12.3 °F 12.2 °F 79% 30.36 in 10.0 mi NNW 3.5 mph - N/A   Clear
5:35 AM 17.6 °F 12.3 °F 10.4 °F 73% 30.37 in 10.0 mi NNW 3.5 mph - N/A   Clear
5:55 AM 17.6 °F - 12.2 °F 79% 30.38 in 10.0 mi Calm Calm - N/A   Clear
6:15 AM 17.6 °F - 12.2 °F 79% 30.38 in 10.0 mi Calm Calm - N/A   Clear
6:35 AM 17.6 °F - 12.2 °F 79% 30.38 in 10.0 mi Calm Calm - N/A   Clear
6:55 AM 17.6 °F 12.3 °F 10.4 °F 73% 30.39 in 10.0 mi WNW 3.5 mph - N/A   Clear
7:15 AM 15.8 °F 7.2 °F 10.4 °F 79% 30.40 in 10.0 mi West 5.8 mph - N/A   Clear
7:35 AM 15.8 °F 8.6 °F 10.4 °F 79% 30.40 in 10.0 mi West 4.6 mph - N/A   Clear
7:55 AM 15.8 °F - 12.2 °F 86% 30.41 in 10.0 mi Calm Calm - N/A   Clear
8:15 AM 17.6 °F 12.3 °F 12.2 °F 79% 30.41 in 10.0 mi West 3.5 mph - N/A   Clear
8:35 AM 19.4 °F - 15.8 °F 86% 30.42 in 10.0 mi Calm Calm - N/A   Clear
8:55 AM 21.2 °F - 15.8 °F 80% 30.41 in 10.0 mi Calm Calm - N/A   Clear
9:15 AM 24.8 °F - 17.6 °F 74% 30.42 in 10.0 mi Calm Calm - N/A   Clear
9:35 AM 24.8 °F - 17.6 °F 74% 30.41 in 10.0 mi Calm Calm - N/A   Clear
9:55 AM 26.6 °F - 15.8 °F 64% 30.42 in 10.0 mi Calm Calm - N/A   Clear
10:15 AM 26.6 °F 22.6 °F 15.8 °F 64% 30.42 in 10.0 mi SW 3.5 mph - N/A   Clear
10:35 AM 28.4 °F - 14.0 °F 55% 30.41 in 7.0 mi Calm Calm - N/A   Clear
10:55 AM 28.4 °F 24.6 °F 15.8 °F 59% 30.41 in 10.0 mi WSW 3.5 mph - N/A   Clear
11:15 AM 30.2 °F 24.3 °F 15.8 °F 55% 30.41 in 10.0 mi WSW 5.8 mph - N/A   Clear
11:35 AM 30.2 °F 25.4 °F 17.6 °F 60% 30.41 in 10.0 mi SW 4.6 mph - N/A   Clear
11:55 AM 32.0 °F 27.5 °F 15.8 °F 51% 30.40 in 10.0 mi WSW 4.6 mph - N/A   Clear
12:15 PM 33.8 °F 28.6 °F 17.6 °F 52% 30.39 in 10.0 mi SSW 5.8 mph - N/A   Clear
12:35 PM 33.8 °F 30.8 °F 17.6 °F 52% 30.39 in 10.0 mi SW 3.5 mph - N/A   Clear
12:55 PM 33.8 °F 28.6 °F 17.6 °F 52% 30.38 in 10.0 mi South 5.8 mph - N/A   Clear
1:15 PM 35.6 °F 31.7 °F 17.6 °F 48% 30.38 in 10.0 mi SSW 4.6 mph - N/A   Clear
1:35 PM 35.6 °F 29.9 °F 17.6 °F 48% 30.37 in 10.0 mi SW 6.9 mph - N/A   Clear
1:55 PM 35.6 °F 32.8 °F 19.4 °F 52% 30.36 in 10.0 mi WNW 3.5 mph - N/A   Clear
2:15 PM 37.4 °F - 17.6 °F 45% 30.35 in 10.0 mi Calm Calm - N/A   Clear
2:35 PM 37.4 °F 34.9 °F 19.4 °F 48% 30.34 in 10.0 mi SSW 3.5 mph - N/A   Clear
2:55 PM 39.2 °F - 19.4 °F 45% 30.32 in 10.0 mi Calm Calm - N/A   Clear
3:15 PM 39.2 °F 33.0 °F 19.4 °F 45% 30.31 in 10.0 mi South 9.2 mph - N/A   Clear
3:35 PM 41.0 °F 39.0 °F 19.4 °F 42% 30.30 in 10.0 mi SSE 3.5 mph - N/A   Clear
3:55 PM 42.8 °F 37.0 °F 21.2 °F 42% 30.29 in 10.0 mi SW 10.4 mph - N/A   Clear
4:15 PM 42.8 °F 38.6 °F 21.2 °F 42% 30.28 in 10.0 mi SSW 6.9 mph - N/A   Clear
4:35 PM 42.8 °F 37.0 °F 21.2 °F 42% 30.27 in 10.0 mi South 10.4 mph 16.1 mph N/A   Clear
4:55 PM 44.6 °F 40.2 °F 21.2 °F 39% 30.26 in 10.0 mi South 8.1 mph - N/A   Clear
5:15 PM 44.6 °F 38.8 °F 21.2 °F 39% 30.26 in 10.0 mi SSE 11.5 mph - N/A   Clear
5:35 PM 42.8 °F 35.8 °F 21.2 °F 42% 30.25 in 10.0 mi SSE 13.8 mph 18.4 mph N/A   Clear
5:55 PM 42.8 °F 35.4 °F 21.2 °F 42% 30.23 in 10.0 mi SSE 15.0 mph - N/A   Clear
6:15 PM 44.6 °F 38.4 °F 21.2 °F 39% 30.23 in 10.0 mi SSE 12.7 mph 17.3 mph N/A   Clear
6:35 PM 42.8 °F 37.0 °F 21.2 °F 42% 30.24 in 10.0 mi SSE 10.4 mph - N/A   Clear
6:55 PM 44.6 °F 38.8 °F 21.2 °F 39% 30.25 in 10.0 mi South 11.5 mph - N/A   Clear
7:15 PM 42.8 °F 38.0 °F 23.0 °F 46% 30.25 in 10.0 mi South 8.1 mph - N/A   Clear
7:35 PM 41.0 °F 36.4 °F 23.0 °F 49% 30.25 in 10.0 mi SSE 6.9 mph - N/A   Clear
7:55 PM 37.4 °F 31.4 °F 23.0 °F 56% 30.24 in 10.0 mi SSE 8.1 mph - N/A   Clear
8:15 PM 35.6 °F 29.2 °F 23.0 °F 60% 30.24 in 10.0 mi SE 8.1 mph - N/A   Clear
8:35 PM 35.6 °F 28.6 °F 21.2 °F 56% 30.23 in 10.0 mi SE 9.2 mph - N/A   Clear
8:55 PM 35.6 °F 28.6 °F 21.2 °F 56% 30.23 in 10.0 mi SE 9.2 mph - N/A   Clear
9:15 PM 33.8 °F 26.4 °F 21.2 °F 60% 30.22 in 10.0 mi SE 9.2 mph - N/A   Clear
9:35 PM 35.6 °F 28.6 °F 21.2 °F 56% 30.22 in 10.0 mi SE 9.2 mph - N/A   Clear
9:55 PM 33.8 °F 25.8 °F 21.2 °F 60% 30.22 in 10.0 mi SE 10.4 mph - N/A   Clear
10:15 PM 35.6 °F 28.6 °F 21.2 °F 56% 30.22 in 10.0 mi ESE 9.2 mph - N/A   Clear
10:35 PM 33.8 °F 25.8 °F 21.2 °F 60% 30.22 in 10.0 mi ESE 10.4 mph - N/A   Clear
10:55 PM 33.8 °F 25.8 °F 21.2 °F 60% 30.22 in 10.0 mi ESE 10.4 mph - N/A   Clear
11:15 PM 32.0 °F 22.5 °F 21.2 °F 64% 30.22 in 10.0 mi ESE 12.7 mph - N/A   Clear
11:35 PM 32.0 °F 23.0 °F 21.2 °F 64% 30.22 in 10.0 mi SE 11.5 mph - N/A   Clear
11:55 PM 32.0 °F 22.5 °F 21.2 °F 64% 30.21 in 10.0 mi SE 12.7 mph - N/A   Clear